Home   Weather   Yekaterinburg   Past weeks

Flag for Russia Past Weather in Yekaterinburg, Russia — Yesterday and Last 2 Weeks

Now
48 °F

Low clouds.


Feels Like: 46 °F
Forecast: 45 / 50 °F
Wind: 6 mph from Northeast

Location: Ekaterinburg

Current Time: Sep 28, 2016 at 8:27:31 AM

Latest Report: Sep 28, 2016 at 8:00 AM


Visibility: N/A

Pressure: 30.01 "Hg

Humidity: 94%

Dew Point: 46 °F

Location of YekaterinburgLocation

Past Weather in Yekaterinburg — Graph

°F

Yekaterinburg Temperature Yesterday

Maximum temperature yesterday: 68 °F (at 3:30 PM)
Minimum temperature yesterday: 37 °F (at 12:30 AM)
Average temperature yesterday: 52 °F

High & Low Weather Summary for the Past Weeks

 TemperatureHumidityPressure
High70 °F (Sep 24, 2:00 PM)100% (Sep 13, 7:00 AM)30.36 "Hg (Sep 13, 7:00 AM)
Low34 °F (Sep 26, 6:30 AM)32% (Sep 26, 2:00 PM)29.45 "Hg (Sep 14, 11:00 PM)
Average50 °F87%29.92 "Hg
* Reported Sep 13 7:00 AM — Sep 28 7:00 AM, Yekaterinburg, Weather by CustomWeather, © 2016

Note: Actual official high and low records may vary slightly from our data, if they occured in-between our weather recording intervals... More about our weather records

Advertising

Yekaterinburg Weather History for the Previous 24 Hours

Scroll right to see more
 ConditionsComfort  
Time TempWeatherWind HumidityBarometerVisibility
7:00 AM
Wed, Sep 28
48 °FLow clouds.10 mph94%30.01 "HgN/A
6:30 AM48 °FLow clouds.8 mph94%30.01 "HgN/A
6:00 AM48 °FLow clouds.8 mph94%30.01 "HgN/A
5:00 AM48 °FLow clouds.6 mph94%29.98 "HgN/A
4:30 AM48 °FLow clouds.6 mph94%30.01 "HgN/A
4:00 AM48 °FLow clouds.6 mph100%30.01 "HgN/A
3:30 AM48 °FPassing clouds.3 mph100%30.01 "HgN/A
3:00 AM48 °FPassing clouds.3 mph100%30.01 "HgN/A
2:30 AM48 °FPassing clouds.3 mph100%30.01 "HgN/A
2:00 AM48 °FPassing clouds.3 mph100%30.01 "HgN/A
1:30 AM48 °FPassing clouds.3 mph100%30.01 "HgN/A
1:00 AM50 °FPassing clouds.3 mph94%30.01 "HgN/A
12:30 AM50 °FClear.3 mph94%30.01 "Hg10 mi
12:00 AM50 °FClear.1 mph94%30.01 "Hg10 mi
11:30 PM
Tue, Sep 27
52 °FPassing clouds.3 mph82%30.01 "HgN/A
11:00 PM52 °FPassing clouds.3 mph82%30.01 "HgN/A
10:30 PM54 °FClear.3 mph72%29.98 "Hg10 mi
10:00 PM52 °FClear.3 mph77%29.98 "Hg10 mi
9:30 PM50 °FClear.6 mph76%29.98 "Hg10 mi
9:00 PM55 °FClear.3 mph63%29.98 "Hg6 mi
8:30 PM55 °FClear.1 mph63%29.98 "Hg6 mi
8:00 PM57 °FClear.1 mph59%29.98 "Hg10 mi
7:30 PM55 °FClear.1 mph67%29.98 "Hg10 mi
7:00 PM54 °FClear.6 mph72%29.98 "Hg10 mi
6:30 PM57 °FSunny.6 mph59%29.98 "Hg10 mi
6:00 PM59 °FSunny.6 mph55%29.98 "Hg10 mi
5:30 PM63 °FSunny.6 mph49%29.98 "Hg10 mi
5:00 PM66 °FSunny.6 mph37%29.98 "Hg10 mi
4:30 PM66 °FPassing clouds.3 mph35%29.98 "HgN/A
4:00 PM68 °FSunny.6 mph33%29.98 "Hg10 mi
3:30 PM68 °FSunny.3 mph35%29.98 "Hg10 mi
3:00 PM66 °FPassing clouds.6 mph37%29.98 "HgN/A
2:30 PM66 °FPassing clouds.3 mph35%29.98 "HgN/A
2:00 PM66 °FPassing clouds.3 mph32%29.98 "HgN/A
1:30 PM66 °FPassing clouds.3 mph32%29.98 "HgN/A
1:00 PM66 °FPassing clouds.3 mph35%29.98 "HgN/A
12:30 PM64 °FPassing clouds.6 mph37%29.98 "HgN/A
12:00 PM63 °FSunny.1 mph49%29.98 "Hg10 mi
11:30 AM59 °FSunny.1 mph59%29.98 "Hg10 mi
11:00 AM57 °FSunny.1 mph63%29.98 "Hg10 mi
10:30 AM52 °FSunny.1 mph77%30.01 "Hg10 mi
10:00 AM50 °FSunny.1 mph82%30.01 "Hg10 mi
9:30 AM50 °FClear.No wind76%30.01 "Hg6 mi
9:00 AM48 °FSunny.No wind82%30.01 "Hg10 mi
8:30 AM46 °FSunny.No wind87%30.01 "Hg10 mi
8:00 AM46 °FSunny.No wind87%29.98 "Hg10 mi
Weather by CustomWeather, © 2016

See weather overviewHow to use our weather pages